Weather in Sasyr

Russia / Sakha (Yakutia) Republic     65°09′43″N   147°04′56″E
temp.,
°C
wind,
m/s
gust,
m/s
humid.,
%
clouds,
%
prec.,
mm/h
press.,
hPa
HPBL,
m
18 august, thu
thu1823:00+8sse2292100 1.0 999107
02:00+8se2390100 0.4 99784
05:00+8sse1192100 0.9 99725
08:00+9sse2292100 1.2 99793
11:00+9sse2387100 1.4 997162
14:00+13sse336563 0.0 996622
17:00+15sse445495 0.0 9961082
20:00+14sse35615 0.0 997195
19 august, fri
fri1923:00+10se227385 0.0 99713
02:00+9se22775 0.0 99821
05:00+9se228095 0.0 99820
08:00+13sse246283 0.0 998282
11:00+17sse565451 0.0 997861
14:00+20sse774551 0.0 9961725
17:00+18s884782 0.0 9971408
20:00+15s5861100 0.0 998365
20 august, sat
sat2023:00+13se4769100 0.0 997156
02:00+13se4671100 0.0 997131
05:00+12se4772100 0.0 997152
08:00+14sse5861100 0.0 997599
11:00+16s775042 0.0 9971394
14:00+18s764367 0.0 9971731
17:00+17s654542 0.0 9981242
20:00+15s565337 0.0 1000283
21 august, sun
sun2123:00+12se336235 0.0 100122
02:00+11se336528 0.0 100116
05:00+9sse2274100 0.0 100211
08:00+13s2261100 0.0 1003209
11:00+15w105298 0.0 1002641
14:00+17w114294 0.0 10011328
17:00+18wsw123998 0.0 10001777
20:00+17nnw1148100 0.0 100011
22 august, mon
mon2223:00+15se225097 0.0 100112
02:00+12se2261100 0.0 100114
05:00+13e1161100 0.0 100110
08:00+11se3484100 0.4 1002155
11:00+12ese1284100 1.4 1003137
14:00+13nnw1174100 0.0 1003476
17:00+16sw135616 0.1 10021078
20:00+15n116511 0.8 100221